EN

Hourly Weather Ovsische

Today, 22 April, Thursday

Time Temperature Precipitation Wind Pressure Humidity
00:00 +2°C° 0 mm 2 mps 740 mmHg 95%
01:00 +2°C° 0 mm 2 mps 740 mmHg 95%
02:00 +2°C° 0 mm 2 mps 740 mmHg 95%
03:00 +3°C° 0.1 mm 2 mps 740 mmHg 95%
04:00 +3°C° 0.1 mm 2 mps 740 mmHg 94%
05:00 +2°C° 0.1 mm 3 mps 740 mmHg 94%
06:00 +3°C° 0.1 mm 3 mps 740 mmHg 91%
07:00 +5°C° 0.1 mm 3 mps 740 mmHg 87%
08:00 +6°C° 0 mm 4 mps 741 mmHg 84%
09:00 +7°C° 0 mm 4 mps 741 mmHg 77%
10:00 +10°C° 0 mm 4 mps 741 mmHg 69%
11:00 +12°C° 0 mm 4 mps 741 mmHg 61%
12:00 +12°C° 0.2 mm 4 mps 741 mmHg 56%
13:00 +13°C° 0.2 mm 4 mps 742 mmHg 51%
14:00 +14°C° 0 mm 3 mps 742 mmHg 45%
15:00 +14°C° 0 mm 3 mps 742 mmHg 48%
16:00 +13°C° 0 mm 3 mps 742 mmHg 52%
17:00 +13°C° 0 mm 3 mps 742 mmHg 55%
18:00 +12°C° 0 mm 2 mps 742 mmHg 63%
19:00 +9°C° 0 mm 2 mps 743 mmHg 71%
20:00 +7°C° 0 mm 2 mps 743 mmHg 78%
21:00 +7°C° 0 mm 3 mps 742 mmHg 80%
22:00 +7°C° 0 mm 3 mps 742 mmHg 82%
23:00 +7°C° 0 mm 3 mps 742 mmHg 84%

Tomorrow, 23 April, Friday

Time Temperature Precipitation Wind Pressure Humidity
00:00 +7°C° 0 mm 3 mps 742 mmHg 87%
01:00 +5°C° 0 mm 3 mps 742 mmHg 90%
02:00 +5°C° 0 mm 3 mps 741 mmHg 93%
03:00 +5°C° 0 mm 3 mps 741 mmHg 94%
04:00 +5°C° 0 mm 3 mps 741 mmHg 94%
05:00 +5°C° 0 mm 3 mps 741 mmHg 95%
06:00 +5°C° 0.5 mm 3 mps 741 mmHg 94%
07:00 +4°C° 0.5 mm 3 mps 742 mmHg 93%
08:00 +4°C° 0.5 mm 3 mps 742 mmHg 92%
09:00 +4°C° 0.8 mm 3 mps 742 mmHg 93%
10:00 +4°C° 0.8 mm 2 mps 742 mmHg 93%
11:00 +4°C° 0.8 mm 2 mps 742 mmHg 94%
12:00 +5°C° 0.4 mm 2 mps 742 mmHg 87%
13:00 +5°C° 0.4 mm 3 mps 742 mmHg 80%
14:00 +7°C° 0.4 mm 3 mps 742 mmHg 74%
15:00 +7°C° 0.1 mm 3 mps 742 mmHg 74%
16:00 +7°C° 0.1 mm 3 mps 742 mmHg 74%
17:00 +7°C° 0.1 mm 3 mps 742 mmHg 75%
18:00 +6°C° 0.1 mm 2 mps 742 mmHg 79%
19:00 +5°C° 0.1 mm 2 mps 743 mmHg 84%
20:00 +4°C° 0.1 mm 2 mps 743 mmHg 89%
21:00 +4°C° 0 mm 2 mps 742 mmHg 90%
22:00 +5°C° 0 mm 1 mps 742 mmHg 91%
23:00 +4°C° 0 mm 1 mps 742 mmHg 92%

Day after tomorrow, 24 April, Saturday

Time Temperature Precipitation Wind Pressure Humidity
00:00 +4°C° 0 mm 1 mps 741 mmHg 91%
01:00 +4°C° 0 mm 1 mps 741 mmHg 91%
02:00 +4°C° 0 mm 1 mps 741 mmHg 91%
03:00 +4°C° 0 mm 1 mps 740 mmHg 91%
04:00 +4°C° 0 mm 1 mps 740 mmHg 90%
05:00 +4°C° 0 mm 1 mps 740 mmHg 90%
06:00 +4°C° 0 mm 1 mps 740 mmHg 86%
07:00 +3°C° 0 mm 2 mps 740 mmHg 82%
08:00 +4°C° 0 mm 2 mps 740 mmHg 79%
09:00 +3°C° 0.1 mm 3 mps 740 mmHg 75%
10:00 +4°C° 0.1 mm 3 mps 740 mmHg 71%
11:00 +5°C° 0.1 mm 3 mps 740 mmHg 67%
12:00 +5°C° 0 mm 3 mps 740 mmHg 62%
13:00 +5°C° 0 mm 3 mps 740 mmHg 58%
14:00 +5°C° 0 mm 3 mps 740 mmHg 53%
15:00 +5°C° 0 mm 3 mps 740 mmHg 52%
16:00 +7°C° 0 mm 3 mps 740 mmHg 51%
17:00 +7°C° 0 mm 3 mps 740 mmHg 49%
18:00 +5°C° 0 mm 2 mps 740 mmHg 56%
19:00 +3°C° 0 mm 2 mps 740 mmHg 63%
20:00 +2°C° 0 mm 1 mps 741 mmHg 69%
21:00 +1°C° 0 mm 2 mps 740 mmHg 73%
22:00 -1°C° 0 mm 2 mps 740 mmHg 76%
23:00 -1°C° 0 mm 2 mps 740 mmHg 79%

25 April, Sunday

Time Temperature Precipitation Wind Pressure Humidity
00:00 -1°C° 0 mm 2 mps 740 mmHg 83%
01:00 -1°C° 0 mm 2 mps 740 mmHg 87%
02:00 -1°C° 0 mm 3 mps 740 mmHg 91%
03:00 -2°C° 0 mm 2 mps 740 mmHg 91%
04:00 -2°C° 0 mm 2 mps 740 mmHg 91%
05:00 -2°C° 0 mm 2 mps 740 mmHg 90%
06:00 0°C° 0 mm 3 mps 740 mmHg 80%
07:00 +1°C° 0 mm 3 mps 740 mmHg 71%
08:00 +2°C° 0 mm 3 mps 740 mmHg 61%
09:00 +1°C° 0 mm 4 mps 740 mmHg 60%
10:00 +3°C° 0 mm 4 mps 740 mmHg 59%
11:00 +3°C° 0 mm 4 mps 740 mmHg 58%
12:00 +4°C° 0.1 mm 4 mps 740 mmHg 57%
13:00 +4°C° 0.1 mm 4 mps 740 mmHg 56%
14:00 +5°C° 0.1 mm 4 mps 740 mmHg 55%
15:00 +5°C° 0.1 mm 4 mps 740 mmHg 57%
16:00 +4°C° 0.1 mm 4 mps 740 mmHg 60%
17:00 +4°C° 0.1 mm 4 mps 740 mmHg 62%
18:00 +3°C° 0 mm 3 mps 740 mmHg 69%
19:00 +2°C° 0 mm 2 mps 741 mmHg 75%
20:00 +1°C° 0 mm 2 mps 741 mmHg 82%
21:00 -1°C° 0 mm 2 mps 741 mmHg 84%
22:00 -1°C° 0 mm 2 mps 741 mmHg 85%
23:00 -2°C° 0 mm 2 mps 741 mmHg 87%

26 April, Monday

Time Temperature Precipitation Wind Pressure Humidity
00:00 -2°C° 0 mm 2 mps 741 mmHg 88%
01:00 -2°C° 0 mm 2 mps 741 mmHg 90%
02:00 -3°C° 0 mm 2 mps 741 mmHg 92%
03:00 -3°C° 0 mm 2 mps 741 mmHg 92%
04:00 -2°C° 0 mm 2 mps 741 mmHg 93%
05:00 -2°C° 0 mm 2 mps 741 mmHg 93%
06:00 -1°C° 0 mm 2 mps 741 mmHg 86%
07:00 +1°C° 0 mm 3 mps 741 mmHg 78%
08:00 +2°C° 0 mm 3 mps 741 mmHg 71%
09:00 +3°C° 0 mm 3 mps 741 mmHg 68%
10:00 +3°C° 0 mm 3 mps 742 mmHg 64%
11:00 +3°C° 0 mm 3 mps 742 mmHg 61%
12:00 +4°C° 0.1 mm 3 mps 741 mmHg 56%
13:00 +5°C° 0.1 mm 3 mps 741 mmHg 51%
14:00 +7°C° 0.1 mm 3 mps 741 mmHg 47%
15:00 +5°C° 0.1 mm 3 mps 741 mmHg 48%
16:00 +6°C° 0.1 mm 2 mps 741 mmHg 50%
17:00 +6°C° 0.1 mm 2 mps 741 mmHg 52%
18:00 +4°C° 0 mm 2 mps 741 mmHg 59%
19:00 +3°C° 0 mm 1 mps 741 mmHg 67%
20:00 +1°C° 0 mm 1 mps 741 mmHg 75%
21:00 +1°C° 0 mm 1 mps 741 mmHg 77%
22:00 0°C° 0 mm 0 mps 741 mmHg 78%
23:00 -1°C° 0 mm 0 mps 741 mmHg 80%

27 April, Tuesday

Time Temperature Precipitation Wind Pressure Humidity
00:00 0°C° 0 mm 1 mps 741 mmHg 82%
01:00 0°C° 0 mm 1 mps 741 mmHg 84%
02:00 -1°C° 0 mm 1 mps 741 mmHg 85%
03:00 -1°C° 0 mm 1 mps 741 mmHg 86%
04:00 0°C° 0 mm 1 mps 741 mmHg 87%
05:00 0°C° 0 mm 1 mps 741 mmHg 88%
06:00 -1°C° 0 mm 2 mps 741 mmHg 80%
07:00 +2°C° 0 mm 2 mps 741 mmHg 72%
08:00 +4°C° 0 mm 2 mps 741 mmHg 64%
09:00 +5°C° 0 mm 2 mps 741 mmHg 58%
10:00 +5°C° 0 mm 3 mps 741 mmHg 53%
11:00 +7°C° 0 mm 3 mps 741 mmHg 47%
12:00 +7°C° 0 mm 3 mps 741 mmHg 46%
13:00 +8°C° 0 mm 3 mps 741 mmHg 44%
14:00 +8°C° 0 mm 3 mps 741 mmHg 42%
15:00 +8°C° 0.1 mm 3 mps 741 mmHg 45%
16:00 +7°C° 0.1 mm 3 mps 741 mmHg 48%
17:00 +7°C° 0.1 mm 2 mps 741 mmHg 51%
18:00 +5°C° 0 mm 2 mps 742 mmHg 60%
19:00 +4°C° 0 mm 2 mps 742 mmHg 69%
20:00 +2°C° 0 mm 2 mps 742 mmHg 78%
21:00 +1°C° 0 mm 2 mps 743 mmHg 80%
22:00 +1°C° 0 mm 2 mps 743 mmHg 82%
23:00 -1°C° 0 mm 2 mps 743 mmHg 85%
Show more

We Need Your Consent

Meteoprog and our Service Providers may store and access personal data such as cookies, device identifiers or other similar technologies on your device and process such data to personalise content and ads, as well as provide social media features and to analyse the traffic.

  • Store and/or access information on your device

    Cookies, device identifiers or other information can be stored or accessed on your device for the purposes indicated above.

  • Personalised ads and content, ad and content measurement, audience insights, and products development

    Ads and content can be personalised based on a profile. More data can be added to better personalise ads and content. Ad and content performance can be measured. Insights about the audience who saw the ads and content can be derived. Such data can be used to develop or improve user’s experience, systems and software.

By clicking ‘I Agree’ you will allow the use of indicated cookies, device identifiers, web beacons or other similar technologies. Your settings can be changed in the browser on your device.

For certain purposes, legitimate interests may be relied on, rather than consent. You can read more about this in our Privacy and Cookie Policy.